Location: ??
(35.5653°N, 139.6194°E)
Time: 03:54:05
(UTC+00:00)

Cosmos 1238 Rocket - Pass Details

Date: 20 November 2019
Orbit: 374 x 1033 km, 82.9° (Epoch: 05 December)

Event Time Altitude Azimuth Distance (km) Brightness Sun altitude
Rises 20:04:23 0° 183° (S) 3,771 7.2 -15.8°
Reaches altitude 10° 20:07:01 10° 183° (S) 2,811 6.5 -15.3°
Maximum altitude 20:13:36 87° 97° (E) 982 4.0 -14.0°
Drops below altitude 10° 20:19:37 10° 7° (N) 2,564 6.1 -12.8°
Sets 20:21:55 0° 7° (N) 3,423 6.8 -12.4°
